Milan, NH

1:27 PM EDT on July 24, 2016 (GMT -0400)
Berlin Municipal

Weather History for KBML - December, 1998

Change the Weather History Date:

Tuesday, December 22, 1998

  Actual Average Record
Temperature  
Mean Temperature 28 °F -  
Max Temperature 48 °F 26 °F 48 °F (1998)
Min Temperature 7 °F 7 °F -11 °F (1997)
Degree Days  
Heating Degree Days 36    
Moisture  
Dew Point 24 °F    
Average Humidity 75    
Maximum Humidity 100    
Minimum Humidity 36    
Precipitation  
Precipitation 0.47 in - - ()
Sea Level Pressure  
Sea Level Pressure 29.65 in    
Wind  
Wind Speed 9 mph (WNW)    
Max Wind Speed 26 mph    
Max Gust Speed 41 mph    
Visibility 6 miles    
Events Fog , Rain , Snow    
Averages and records for this station are not official NWS values.
T = Trace of Precipitation, MM = Missing Value Source: NWS Daily Summary

Daily Weather History Graph

Daily Weather History Graph

Search for Another Location

Airport or City:

Trip Planner

Search our weather history database for the weather conditions in past years. The results will help you decide how hot, cold, wet, or windy it might be!

Date:

Astronomy

Dec. 22, 1998 Rise Set
Actual Time 7:18 AM EST 4:07 PM EST
Civil Twilight 6:45 AM EST 4:41 PM EST
Nautical Twilight 6:08 AM EST 5:18 PM EST
Astronomical Twilight 5:32 AM EST 5:53 PM EST
Moon 9:48 AM EST (12/22) 8:01 PM EST (12/22)
Length of Visible Light 9h 56m
Length of Day
8h 49m
Waxing Crescent, 14% of the Moon is Illuminated
Dec 22
Waxing Crescent
Dec 26
First Quarter
Jan 1
Full
Jan 9
Last Quarter
Jan 17
New

Hourly Weather History & Observations

Time (EST) Temp. Windchill Dew Point Humidity Pressure Visibility Wind Dir Wind Speed Gust Speed Precip Events Conditions
12:24 AM 39.2 °F 33.6 °F 37.4 °F 93% 29.70 in 9.0 mi East 8.1 mph - 0.00 in   Overcast
12:52 AM 37.9 °F - 37.0 °F 97% 29.73 in 9.0 mi Calm Calm - 0.00 in   Mostly Cloudy
1:52 AM 41.0 °F 37.1 °F 39.0 °F 93% 29.67 in 8.0 mi SSE 5.8 mph - 0.02 in Rain Light Rain
2:52 AM 42.1 °F 34.9 °F 39.0 °F 89% 29.57 in 10.0 mi SE 13.8 mph - 0.03 in Rain Light Rain
3:52 AM 44.1 °F 39.0 °F 41.0 °F 89% 29.50 in 5.0 mi South 9.2 mph - 0.09 in Rain Light Rain
4:52 AM 43.0 °F 38.2 °F 41.0 °F 93% 29.47 in 4.0 mi SE 8.1 mph - 0.12 in Rain Rain
5:09 AM 42.8 °F - 42.8 °F 100% 29.42 in 5.0 mi Calm Calm - 0.02 in Rain Light Rain
5:52 AM 42.1 °F - 41.0 °F 96% 29.45 in 4.0 mi Calm Calm - 0.03 in   Overcast
6:03 AM 39.2 °F 35.9 °F 39.2 °F 100% 29.41 in 1.8 mi Variable 4.6 mph - 0.02 in Rain Light Rain
6:18 AM 41.0 °F - 41.0 °F 100% 29.41 in 2.5 mi Calm Calm - 0.04 in Rain Light Rain
6:22 AM 41.0 °F - 39.2 °F 93% 29.41 in 3.0 mi Calm Calm - 0.04 in Rain Light Rain
6:31 AM 39.2 °F 37.0 °F 39.2 °F 100% 29.40 in 2.0 mi Variable 3.5 mph - 0.05 in Rain Light Rain
6:41 AM 46.4 °F 45.2 °F 44.6 °F 93% 29.39 in 6.0 mi Variable 3.5 mph - 0.06 in Rain Light Rain
6:52 AM 48.9 °F - 46.0 °F 90% 29.43 in 10.0 mi SW 4.6 mph - 0.06 in Rain Light Rain
7:52 AM 46.9 °F - 45.0 °F 93% 29.44 in 6.0 mi WNW 9.2 mph - 0.05 in Rain Light Rain
8:23 AM 41.0 °F 32.2 °F 37.4 °F 87% 29.46 in 5.0 mi WNW 18.4 mph 29.9 mph 0.02 in Rain Light Rain
8:52 AM 37.0 °F 29.3 °F 34.0 °F 89% 29.53 in 7.0 mi West 11.5 mph - 0.04 in Rain Light Rain
9:31 AM 35.6 °F 30.7 °F 32.0 °F 87% 29.54 in 3.0 mi Variable 5.8 mph - 0.01 in Snow Light Snow
9:33 AM 35.6 °F 28.6 °F 32.0 °F 87% 29.54 in 2.5 mi West 9.2 mph - 0.01 in Snow Light Snow
9:36 AM 33.8 °F 25.8 °F 32.0 °F 93% 29.55 in 2.0 mi West 10.4 mph 16.1 mph 0.02 in Snow Light Snow
9:39 AM 33.8 °F 27.7 °F 32.0 °F 93% 29.55 in 2.0 mi West 6.9 mph 16.1 mph 0.02 in Snow Light Snow
9:52 AM 34.0 °F 24.6 °F 30.9 °F 89% 29.60 in 2.5 mi West 13.8 mph 25.3 mph 0.02 in Snow Light Snow
9:54 AM 33.8 °F 23.2 °F 30.2 °F 87% 29.55 in 3.0 mi West 17.3 mph 25.3 mph 0.00 in Snow Light Snow
10:12 AM 33.8 °F 25.8 °F 28.4 °F 81% 29.56 in 2.5 mi West 10.4 mph 21.9 mph 0.01 in Snow Light Snow
10:26 AM 33.8 °F 23.5 °F 28.4 °F 81% 29.56 in 6.0 mi WNW 16.1 mph 24.2 mph 0.01 in Snow Light Snow
10:45 AM 33.8 °F 24.3 °F 26.6 °F 75% 29.56 in 10.0 mi WNW 13.8 mph 20.7 mph 0.01 in   Overcast
10:52 AM 33.1 °F 23.9 °F 26.1 °F 75% 29.60 in 10.0 mi WNW 12.7 mph 21.9 mph 0.01 in   Overcast
11:12 AM 32.0 °F 21.2 °F 24.8 °F 75% 29.57 in 10.0 mi WNW 16.1 mph 26.5 mph N/A   Overcast
11:44 AM 30.2 °F 18.1 °F 21.2 °F 69% 29.57 in 9.0 mi WNW 18.4 mph 25.3 mph 0.00 in Snow Light Snow
11:52 AM 30.0 °F 20.5 °F 21.9 °F 72% 29.60 in 9.0 mi West 11.5 mph 25.3 mph 0.00 in Snow Light Snow
12:52 PM 33.1 °F 20.6 °F 15.1 °F 48% 29.62 in 10.0 mi West 23.0 mph 35.7 mph 0.00 in   Mostly Cloudy
1:34 PM 28.4 °F 17.5 °F 19.4 °F 69% 29.63 in 1.5 mi WNW 13.8 mph 29.9 mph 0.00 in Snow Light Snow
1:37 PM 26.6 °F 14.3 °F 21.2 °F 80% 29.64 in 0.8 mi NW 16.1 mph 27.6 mph 0.00 in Snow Light Snow
1:41 PM 26.6 °F 16.8 °F 21.2 °F 80% 29.64 in 0.2 mi WNW 10.4 mph 25.3 mph 0.00 in Fog , Snow Snow
1:52 PM 27.0 °F 14.7 °F 17.1 °F 66% 29.69 in 1.8 mi WNW 16.1 mph 27.6 mph 0.00 in Snow Light Snow
1:54 PM 26.6 °F 13.1 °F 15.8 °F 64% 29.66 in 4.0 mi WNW 19.6 mph 27.6 mph 0.00 in Snow Light Snow
2:15 PM 26.6 °F 12.0 °F 8.6 °F 47% 29.68 in 10.0 mi WNW 23.0 mph 40.3 mph 0.00 in   Overcast
2:52 PM 24.1 °F 10.6 °F 3.9 °F 42% 29.76 in 10.0 mi NW 17.3 mph 41.4 mph 0.00 in   Scattered Clouds
3:52 PM 21.0 °F 3.6 °F -2.0 °F 36% 29.82 in 10.0 mi NW 26.5 mph 36.8 mph N/A   Clear
4:52 PM 18.0 °F 2.2 °F -4.0 °F 38% 29.90 in 10.0 mi NW 18.4 mph 27.6 mph N/A   Partly Cloudy
5:52 PM 16.0 °F 0.6 °F -2.0 °F 45% 29.97 in 10.0 mi NW 16.1 mph 29.9 mph N/A   Clear
6:52 PM 14.0 °F -2.0 °F -4.0 °F 45% 30.02 in 10.0 mi WNW 16.1 mph 26.5 mph N/A   Scattered Clouds
7:52 PM 12.0 °F -3.4 °F -5.1 °F 46% 30.08 in 10.0 mi West 13.8 mph 26.5 mph N/A   Scattered Clouds
8:52 PM 10.9 °F -4.7 °F -7.1 °F 44% 30.14 in 10.0 mi West 13.8 mph 23.0 mph N/A   Partly Cloudy
9:52 PM 10.0 °F -7.6 °F -8.0 °F 44% 30.18 in 10.0 mi WNW 17.3 mph 27.6 mph N/A   Clear
10:52 PM 9.0 °F -4.2 °F -8.0 °F 46% 30.23 in 10.0 mi WNW 9.2 mph 23.0 mph N/A   Partly Cloudy
11:52 PM 7.0 °F -9.8 °F -11.9 °F 42% 30.27 in 10.0 mi WNW 13.8 mph 32.2 mph N/A   Clear